Back to catalog

OAO 3

COPERNICUS

AliveScienceLEO
NORAD 6153·PAYLOAD·🇺🇸 United States

Launched Aug 21, 1972 from Cape Canaveral Space Force Station

Loading…

Next Passes (next 24 hours)

TLE

FreshSource: Space-Track

Epoch: Sep 14, 2026, 04:46 UTC

1 06153U 72065A   26257.19878764  .00000210  00000-0  47309-4 0  9997
2 06153  35.0063 303.2047 0007169 264.0715 137.5069 14.60101655873762

Track OAO 3 in real time with AllMySat

Download on the App Store